Dutch Harbor, AK

12:52 AM AKDT on August 18, 2017 (GMT -0800)
Unalaska

Weather History for PADU - August, 2013

Change the Weather History Date:

Tuesday, August 6, 2013

  Actual Average Record
Temperature  
Mean Temperature 52 °F -  
Max Temperature 54 °F 56 °F 66 °F (1993)
Min Temperature 50 °F 47 °F 39 °F (1985)
Degree Days  
Heating Degree Days 13    
Growing Degree Days 2 (Base 50)    
Moisture  
Dew Point 44 °F    
Average Humidity 73    
Maximum Humidity 89    
Minimum Humidity 59    
Precipitation  
Precipitation 0.00 in - - ()
Sea Level Pressure  
Sea Level Pressure 29.75 in    
Wind  
Wind Speed 19 mph (NW)    
Max Wind Speed 29 mph    
Max Gust Speed 34 mph    
Visibility 10 miles    
Events Rain    
Averages and records for this station are not official NWS values.
T = Trace of Precipitation, MM = Missing Value Source: NWS Daily Summary

Daily Weather History Graph

Daily Weather History Graph

Search for Another Location

Airport or City:

Trip Planner

Search our weather history database for the weather conditions in past years. The results will help you decide how hot, cold, wet, or windy it might be!

Date:

Astronomy

Aug. 06, 2013 Rise Set
Actual Time 7:29 AM AKDT 10:53 PM AKDT
Civil Twilight 6:46 AM AKDT 11:35 PM AKDT
Nautical Twilight 5:48 AM AKDT 12:33 AM AKDT
Astronomical Twilight 4:20 AM AKDT 1:57 AM AKDT
Moon 7:44 AM AKDT (8/6) 10:18 PM AKDT (8/6)
Length of Visible Light 16h 48m
Length of Day
15h 23m
Waning Crescent, 0% of the Moon is Illuminated
Aug 6
Waning Crescent
Aug 6
New
Aug 14
First Quarter
Aug 20
Full
Aug 28
Last Quarter

Hourly Weather History & Observations

Time (AKDT) Temp. Dew Point Humidity Pressure Visibility Wind Dir Wind Speed Gust Speed Precip Events Conditions
12:56 AM 51.1 °F 46.0 °F 83% 29.78 in 8.0 mi NW 19.6 mph - N/A Rain Light Rain
1:56 AM 50.0 °F 46.9 °F 89% 29.78 in 6.0 mi NNW 12.7 mph - N/A Rain Light Rain
2:33 AM 51.8 °F 46.4 °F 82% 29.75 in 10.0 mi NW 18.4 mph - N/A Rain Light Rain
2:56 AM 52.0 °F 45.0 °F 77% 29.76 in 10.0 mi NW 21.9 mph 27.6 mph N/A Rain Light Rain
4:56 AM 51.1 °F 46.0 °F 83% 29.76 in 10.0 mi WNW 23.0 mph 33.4 mph N/A   Overcast
5:56 AM 52.0 °F 45.0 °F 77% 29.76 in 10.0 mi NNW 28.8 mph 33.4 mph N/A   Overcast
6:56 AM 52.0 °F 46.0 °F 80% 29.76 in 10.0 mi NW 20.7 mph 28.8 mph N/A   Overcast
7:17 AM 51.8 °F 44.6 °F 76% 29.74 in 10.0 mi NW 24.2 mph 34.5 mph N/A Rain Light Rain
7:56 AM 52.0 °F 46.0 °F 80% 29.76 in 10.0 mi NW 23.0 mph 27.6 mph N/A   Mostly Cloudy
8:56 AM 52.0 °F 46.0 °F 80% 29.76 in 10.0 mi NW 27.6 mph 33.4 mph N/A   Overcast
9:15 AM 51.8 °F 44.6 °F 76% 29.74 in 10.0 mi NW 24.2 mph 31.1 mph N/A   Overcast
9:56 AM 51.1 °F 45.0 °F 80% 29.77 in 9.0 mi NW 25.3 mph 29.9 mph N/A Rain Light Rain
10:56 AM 52.0 °F 44.1 °F 74% 29.77 in 10.0 mi NNW 15.0 mph - N/A   Overcast
11:53 AM 51.8 °F 42.8 °F 71% 29.75 in 10.0 mi NW 19.6 mph - N/A   Mostly Cloudy
11:56 AM 52.0 °F 44.1 °F 74% 29.77 in 10.0 mi NW 21.9 mph 25.3 mph N/A   Mostly Cloudy
12:56 PM 53.1 °F 42.1 °F 66% 29.77 in 10.0 mi NW 19.6 mph 25.3 mph N/A   Mostly Cloudy
1:56 PM 53.1 °F 43.0 °F 69% 29.77 in 10.0 mi WNW 9.2 mph - N/A   Mostly Cloudy
2:56 PM 53.1 °F 42.1 °F 66% 29.76 in 10.0 mi WNW 12.7 mph 17.3 mph N/A   Mostly Cloudy
3:56 PM 53.1 °F 42.1 °F 66% 29.76 in 10.0 mi WNW 10.4 mph 18.4 mph N/A   Mostly Cloudy
4:56 PM 54.0 °F 39.9 °F 59% 29.75 in 9.0 mi WNW 13.8 mph 24.2 mph N/A   Overcast
5:56 PM 53.1 °F 42.1 °F 66% 29.75 in 10.0 mi WNW 11.5 mph 20.7 mph N/A   Overcast
6:56 PM 53.1 °F 42.1 °F 66% 29.73 in 10.0 mi WNW 16.1 mph 21.9 mph N/A   Mostly Cloudy
7:56 PM 53.1 °F 43.0 °F 69% 29.73 in 10.0 mi WNW 20.7 mph 28.8 mph N/A   Overcast
8:56 PM 52.0 °F 43.0 °F 71% 29.72 in 10.0 mi WNW 21.9 mph 32.2 mph N/A   Overcast
9:56 PM 53.1 °F 43.0 °F 69% 29.72 in 10.0 mi WNW 17.3 mph - N/A   Overcast
10:56 PM 53.1 °F 42.1 °F 66% 29.72 in 10.0 mi WNW 19.6 mph 27.6 mph N/A   Mostly Cloudy
11:56 PM 52.0 °F 42.1 °F 69% 29.71 in 10.0 mi West 12.7 mph - N/A   Overcast